Wind_Speed
18 18 18 17 17 17 17 17 17 17 17 17 17 17 17 17 16 16 16 15 15 14 14 13 12 12 12 12 11 11 10 9 7 7 7 7 6 6 6 6 5 5 5 5 5 5 5 6 6 7 8 8 9 9 10 10 11 11 12 14 14 13 12 11 8 6 5 4 3 2 1 2 4 4 4 6 5 5 4 4 3 3 4 4 5 4 4 5
18 18 18 17 17 17 17 17 18 18 18 18 17 17 18 18 17 17 17 16 15 15 15 14 13 13 13 12 12 11 10 9 8 7 7 7 7 7 6 6 5 5 5 5 5 5 5 5 5 6 7 7 8 8 9 9 11 12 13 13 13 12 11 10 8 7 6 5 4 3 2 3 4 4 5 6 6 5 4 3 2 2 3 4 5 5 5 5
18 18 18 18 17 17 17 18 18 18 19 18 18 18 18 18 18 18 18 17 16 16 15 15 14 14 13 13 12 11 10 9 8 8 8 7 7 7 6 6 5 5 5 5 5 5 6 5 5 5 6 6 7 7 8 9 10 11 12 12 12 11 11 10 8 7 6 6 5 4 3 4 5 6 6 6 6 5 3 2 2 3 5 5 6 6 6 6
18 18 18 17 17 17 17 17 18 18 19 19 19 19 19 19 19 19 18 18 17 16 16 15 15 15 14 13 12 11 11 9 9 9 8 8 7 7 6 6 5 5 5 6 5 5 5 5 5 6 5 5 5 6 7 8 8 9 10 11 11 11 10 9 8 7 7 7 7 6 5 5 6 7 6 6 6 4 3 4 5 6 7 7 7 8 7 7
17 17 17 17 17 17 17 18 18 18 19 19 19 19 19 19 19 19 18 18 17 17 16 16 16 15 14 14 13 11 10 8 9 9 8 8 7 6 6 6 6 5 6 6 6 5 5 5 6 6 4 3 4 4 5 6 7 8 9 9 10 11 10 9 8 8 8 8 7 7 7 7 7 8 7 8 7 5 6 8 8 8 9 9 9 9 9 9
17 17 17 17 17 17 17 17 18 18 18 18 19 19 19 19 19 19 18 18 18 17 17 17 16 16 15 14 13 12 10 8 8 9 8 7 7 7 6 6 6 6 6 6 6 6 6 6 5 4 3 3 3 3 4 5 6 7 8 9 9 10 10 9 9 9 8 8 8 8 8 7 8 8 9 9 7 6 8 10 10 10 10 10 10 10 10 10
17 17 17 17 17 17 17 17 17 17 18 18 18 19 19 19 19 19 18 18 18 18 18 18 17 16 15 14 13 12 11 10 8 7 8 8 7 7 6 6 6 6 6 6 6 7 7 6 5 4 4 4 4 3 4 4 5 7 7 8 8 9 10 10 10 9 9 9 9 9 8 8 9 10 12 9 7 8 9 10 11 11 11 11 11 11 11 11
18 18 18 18 18 17 17 17 17 18 18 18 18 18 19 19 19 19 19 19 19 19 19 18 17 16 16 15 14 12 11 11 9 7 8 8 8 7 6 6 6 6 6 6 6 7 6 5 4 4 5 5 4 4 4 4 6 7 8 8 8 9 9 10 11 11 11 10 10 10 10 10 11 13 13 9 8 9 9 10 11 12 13 13 13 13 13 13
19 19 18 18 18 18 18 18 18 18 18 18 19 19 19 19 19 19 19 19 19 19 19 18 17 16 16 15 14 13 12 11 10 9 8 8 8 7 7 6 6 6 6 6 6 6 6 6 5 5 5 5 5 5 5 5 6 7 8 8 8 9 9 10 11 11 11 10 11 11 12 13 13 15 13 8 8 9 9 11 12 13 14 14 14 15 14 14
20 19 19 19 18 18 18 18 18 19 19 19 19 19 19 19 19 19 20 20 20 19 19 18 17 17 16 16 15 13 13 12 11 11 11 10 9 8 7 7 7 6 6 6 6 6 6 6 5 6 6 6 6 6 6 6 7 7 7 7 8 9 9 11 11 12 11 10 12 12 14 15 15 17 12 7 10 11 12 13 13 14 14 15 15 15 16 16
20 20 19 19 19 19 19 19 19 19 20 20 20 20 20 20 20 20 20 20 20 20 19 18 17 17 16 17 15 14 13 13 12 13 13 12 10 9 8 8 8 7 7 7 6 6 6 6 6 6 6 7 7 6 7 7 8 8 9 9 9 10 10 11 11 12 12 11 12 13 16 18 18 17 11 9 13 14 15 15 15 15 15 15 16 15 15 15
20 20 20 19 19 19 19 19 19 20 20 20 20 20 20 20 20 21 21 21 20 20 19 18 17 17 17 17 15 15 15 14 13 14 13 13 11 10 9 9 8 8 8 7 7 7 7 7 7 7 7 7 7 6 7 7 8 9 9 10 11 12 12 12 12 12 12 12 13 14 19 20 18 15 12 12 14 14 15 15 15 15 15 15 15 15 15 14
20 20 20 20 20 20 20 20 20 20 20 20 20 20 20 21 21 21 21 21 21 20 19 19 18 17 17 17 16 16 16 15 15 14 14 13 12 11 10 10 9 9 8 8 8 7 8 8 7 8 8 8 8 8 8 8 8 9 9 10 11 13 14 13 12 13 13 13 14 14 20 22 17 15 14 14 15 15 16 15 15 16 16 16 15 15 14 14
21 21 21 21 21 21 21 21 21 21 20 20 20 20 21 21 21 21 21 21 21 20 19 19 18 18 18 17 17 18 18 17 16 15 14 13 12 12 11 11 10 10 9 9 8 8 8 8 8 9 9 9 10 10 11 11 11 10 10 11 13 15 14 13 11 12 12 13 14 14 21 23 17 16 16 15 15 15 15 15 16 16 15 15 15 15 15 16
21 22 22 22 22 21 21 21 21 21 20 20 20 21 21 21 21 21 21 21 21 20 20 20 19 19 19 18 18 18 18 18 17 16 15 15 14 13 13 12 11 11 10 10 9 10 9 9 9 9 10 10 10 11 12 12 12 12 12 13 14 15 14 12 11 12 12 14 16 16 21 22 17 15 15 14 14 14 15 15 15 16 16 17 17 18 18 18
23 22 22 22 22 22 22 22 21 21 20 20 20 20 20 20 21 21 21 21 20 20 20 20 20 20 19 18 19 19 19 18 18 18 18 17 16 15 14 14 13 12 12 11 11 11 11 10 10 10 11 11 11 12 11 12 13 14 14 15 15 15 14 13 13 14 14 15 17 18 21 23 19 17 16 16 16 17 18 17 18 19 19 21 21 22 21 19
25 24 23 23 22 22 22 22 22 21 21 20 20 20 20 20 19 20 19 19 19 19 19 20 19 20 19 18 18 18 18 19 19 19 19 19 18 17 17 16 15 14 13 13 13 12 12 12 11 12 11 11 12 12 11 13 14 13 13 15 15 15 15 15 14 14 14 16 17 19 24 25 21 19 20 19 20 21 22 22 22 23 24 25 25 24 22 20
27 26 25 24 24 23 22 22 22 22 21 21 21 20 20 19 19 19 18 18 18 18 19 19 19 19 18 17 17 16 18 20 20 21 21 20 19 19 18 18 17 16 15 15 14 14 14 13 13 13 13 13 13 12 12 12 12 11 12 14 15 16 17 17 16 15 16 18 20 22 27 27 23 21 22 22 23 25 25 25 25 26 27 27 26 25 23 22
28 28 27 26 25 24 24 23 23 23 22 22 22 21 20 20 20 20 19 19 18 18 17 16 18 18 17 16 15 16 18 20 21 22 22 21 20 20 20 19 18 18 17 16 16 16 15 14 14 14 13 12 11 11 11 11 12 14 15 16 17 18 20 19 18 18 19 21 23 25 28 28 26 24 22 22 25 27 27 27 28 28 28 27 27 25 24 23
29 28 28 28 27 26 26 25 25 24 23 23 23 22 22 21 21 20 20 20 19 19 18 18 18 19 17 16 16 16 18 19 21 21 21 22 21 21 21 21 20 20 19 18 17 17 16 17 17 15 12 9 9 10 12 13 15 16 17 18 19 21 21 19 18 20 21 24 26 27 29 30 29 27 24 24 28 30 29 29 29 29 29 29 28 26 25 24
29 29 29 29 28 28 28 27 27 26 25 25 24 24 24 22 21 20 20 21 20 20 21 22 22 22 21 19 18 18 19 19 21 21 21 21 21 22 23 22 22 22 21 20 19 18 18 20 18 13 10 9 10 12 14 15 17 18 19 20 21 22 22 19 19 21 22 25 28 27 29 32 31 29 27 28 31 33 31 30 31 31 31 30 29 27 26 26
28 28 29 29 29 29 29 29 28 28 27 27 26 26 24 23 22 22 23 23 23 23 24 24 25 25 24 23 22 22 22 22 21 21 22 22 22 23 23 22 21 20 20 20 20 19 21 23 18 13 14 14 15 17 17 18 19 19 19 21 22 21 21 19 18 19 20 24 28 27 31 34 32 32 31 31 34 35 34 33 32 31 30 28 27 25 26 26
30 29 28 28 29 29 30 30 29 29 29 29 28 26 25 25 24 24 24 26 27 27 27 27 27 27 26 26 26 25 26 26 24 23 22 22 22 22 23 23 21 20 21 22 22 22 24 20 14 13 16 16 16 17 17 17 18 18 19 21 22 20 19 19 18 19 20 24 28 29 35 39 36 35 34 32 34 35 34 33 30 28 27 26 24 24 26 26
34 33 31 30 29 29 30 30 30 30 29 29 27 26 25 24 23 23 23 25 29 31 30 29 30 31 29 27 27 28 29 29 28 27 25 24 22 22 23 22 22 23 24 23 22 25 25 19 17 18 17 16 17 18 19 19 20 20 22 24 24 21 19 20 21 21 24 28 29 30 35 39 36 34 33 31 32 34 32 32 30 27 26 24 24 25 25 26
36 35 35 35 32 31 29 29 30 29 29 28 25 24 24 22 21 20 20 23 30 34 32 32 34 34 32 30 31 32 31 32 32 30 29 28 25 24 24 23 25 26 24 23 23 26 27 25 24 24 23 23 24 25 24 22 23 24 26 25 23 21 19 20 20 21 24 27 27 25 19 20 28 33 33 33 35 34 32 32 28 23 21 23 24 26 26 27
40 39 39 39 39 37 32 30 29 27 30 27 24 24 22 20 18 17 19 21 30 38 36 34 34 33 35 36 35 32 31 35 35 32 32 30 28 27 27 27 28 28 25 22 24 29 32 29 27 26 26 27 28 29 27 24 24 26 27 24 21 19 18 18 18 18 19 20 22 21 12 16 33 40 36 35 37 34 31 29 26 21 20 22 22 22 22 23
42 43 43 43 44 43 40 36 29 28 30 26 25 25 21 20 17 17 18 13 23 38 37 36 37 35 35 35 35 32 33 37 35 33 35 32 31 31 31 32 31 29 26 23 26 33 34 30 28 28 28 29 31 31 28 25 25 28 27 23 19 19 18 16 17 18 19 24 28 26 22 23 35 41 38 37 37 34 31 27 24 21 19 18 17 17 19 19
39 41 41 41 43 44 44 42 37 35 33 29 29 27 24 24 19 20 15 3 14 28 27 31 36 36 36 34 32 32 35 39 34 31 34 34 34 34 33 35 33 30 27 27 32 36 33 29 28 27 27 29 31 27 24 23 25 28 25 22 20 19 19 19 19 19 20 26 27 27 23 18 27 41 39 37 39 37 31 25 22 20 17 16 17 18 17 16
36 38 38 36 37 38 41 43 44 43 40 39 37 33 32 27 22 20 9 4 20 28 24 27 30 31 33 33 33 33 36 38 35 32 32 32 34 36 35 34 32 30 30 31 36 36 34 32 30 28 29 30 27 22 20 20 22 25 23 21 19 18 20 19 18 19 16 18 24 28 23 14 22 37 33 33 39 36 29 24 20 19 18 19 18 15 13 14
36 36 36 35 35 36 39 41 42 43 46 47 44 43 39 30 27 18 5 12 29 27 25 28 29 30 30 29 31 33 35 37 36 35 32 31 32 33 35 34 31 32 33 34 37 38 37 36 33 32 33 32 28 24 22 20 20 22 21 19 17 16 18 18 18 17 10 13 25 28 24 18 13 15 19 29 34 31 31 27 21 20 21 18 14 12 15 19
37 37 35 36 37 38 39 39 37 38 43 45 44 45 39 33 33 18 8 29 36 28 29 29 30 35 35 34 33 31 34 35 35 35 34 34 32 32 35 35 33 31 32 36 39 40 40 39 38 39 38 35 32 29 25 22 22 22 21 20 16 11 11 12 14 11 4 8 19 18 16 20 17 14 21 32 34 33 33 27 21 19 18 14 15 19 23 24
39 38 37 37 37 38 39 37 34 33 37 38 38 40 39 32 28 23 26 36 27 24 33 32 34 38 36 35 33 30 31 33 34 35 35 35 35 37 38 38 37 31 30 40 43 40 42 43 42 41 41 39 35 30 27 26 25 24 23 21 13 4 4 6 6 4 6 12 18 15 10 17 29 34 35 34 31 27 22 17 12 12 12 18 23 25 23 21
41 41 39 39 39 37 38 38 35 33 33 32 31 37 39 25 21 36 49 43 23 19 28 31 35 35 32 32 31 29 29 29 31 32 34 36 36 38 38 38 40 35 33 38 39 37 36 39 43 44 43 42 40 37 33 31 28 28 29 26 15 5 1 3 4 2 7 13 16 17 13 16 28 33 27 19 17 17 16 10 9 11 17 24 23 20 19 19
43 43 42 41 41 38 38 38 36 34 32 31 30 34 34 21 23 43 53 51 42 30 24 24 27 27 29 33 32 31 30 29 31 31 33 36 37 39 40 40 41 41 39 34 31 33 27 26 36 40 39 40 42 41 40 37 31 29 30 29 25 19 10 5 4 3 5 8 9 11 9 10 15 15 11 12 19 23 23 19 19 23 23 17 16 18 21 20
43 44 44 44 44 42 40 39 37 35 33 34 34 36 36 31 35 44 47 52 52 41 27 18 16 20 26 29 31 31 31 31 32 32 34 37 38 40 40 41 42 43 43 36 31 30 27 28 35 32 29 30 32 33 36 36 32 28 28 29 31 33 25 12 9 11 8 8 9 12 16 23 27 28 27 29 36 35 30 28 27 21 12 12 17 22 21 18
43 44 45 46 46 44 42 41 40 37 35 37 36 41 41 40 41 42 43 46 48 47 38 22 14 20 24 28 31 31 31 33 33 33 36 38 39 40 39 39 41 42 44 42 36 29 25 30 36 31 28 27 24 24 28 30 28 27 30 35 36 33 26 17 13 14 9 6 12 16 23 33 36 38 38 32 29 25 20 19 15 10 11 18 21 18 16 17
42 43 45 47 47 45 43 41 41 37 35 40 40 41 41 41 39 39 39 39 40 45 46 35 25 25 25 27 31 32 32 33 32 34 37 37 38 42 43 41 40 41 42 42 42 37 27 25 30 29 28 29 28 24 25 28 29 29 30 33 33 26 22 19 9 5 1 3 10 14 22 29 25 25 29 24 21 22 18 15 14 15 18 17 14 13 15 18
42 43 46 47 45 45 43 40 40 37 36 42 45 43 43 44 41 38 39 40 38 36 42 41 35 31 29 29 30 32 33 34 34 35 36 36 36 40 44 44 44 43 41 40 42 42 33 25 25 26 23 24 27 27 26 29 31 34 31 26 23 18 17 19 11 2 2 2 6 11 18 27 29 30 35 34 31 27 20 16 15 11 9 9 12 15 16 16
42 43 47 48 44 42 42 39 37 38 40 46 49 48 49 51 48 42 39 42 40 36 37 41 39 35 33 34 33 33 34 36 38 38 36 36 38 41 42 42 42 41 42 43 43 43 38 28 23 27 26 22 25 29 32 34 34 35 33 28 25 21 16 20 18 10 5 3 4 7 9 23 37 39 37 30 21 16 10 9 10 9 7 12 16 15 12 12
40 42 48 48 42 39 40 37 36 39 44 48 49 49 49 50 51 46 42 42 43 41 40 41 40 37 37 37 36 35 36 38 40 41 39 39 40 43 42 40 40 39 38 41 44 43 41 34 25 24 23 22 28 32 36 38 36 35 37 34 33 29 21 16 18 18 9 2 2 1 6 31 46 34 23 16 12 11 7 14 14 8 13 15 13 12 13 15
37 41 46 45 39 37 36 37 39 41 46 50 51 51 50 49 50 48 45 44 45 44 43 43 41 39 40 39 38 38 36 37 40 42 42 42 42 43 42 39 38 37 36 39 43 42 42 41 35 29 27 31 36 37 36 37 36 37 38 38 38 39 32 16 9 17 16 8 8 3 6 39 52 32 25 23 14 11 14 16 12 15 16 13 12 14 17 20
38 41 44 40 35 34 34 37 41 42 46 50 51 52 53 53 52 49 46 46 47 47 46 45 43 41 40 40 40 40 38 37 40 42 42 44 45 45 42 38 35 34 35 37 38 40 42 42 38 37 40 40 38 34 32 33 35 37 38 39 41 42 42 27 10 13 19 19 22 9 5 39 53 32 22 17 12 17 17 16 18 16 15 14 15 17 20 23
42 43 41 35 30 30 31 36 40 43 47 49 50 52 54 54 53 51 50 48 47 48 49 49 47 44 42 40 39 38 39 39 40 43 44 44 47 47 44 42 38 33 32 34 34 36 39 37 33 34 37 37 35 33 34 32 33 39 43 45 43 40 42 37 27 24 20 22 25 8 4 39 50 28 16 15 18 19 18 18 18 16 17 17 16 19 21 21
42 44 43 37 30 27 31 37 41 44 48 51 51 51 52 53 54 53 53 51 48 48 49 50 49 46 44 41 38 37 38 37 38 42 44 45 47 46 44 45 44 39 36 37 36 35 35 37 35 25 17 20 23 25 31 36 36 39 43 44 44 43 39 37 36 30 19 26 31 14 12 42 45 29 24 20 21 25 19 16 15 12 15 21 21 23 22 20
39 41 43 41 37 34 34 38 41 43 46 49 51 52 52 54 56 55 53 53 51 50 49 49 49 48 47 44 41 40 39 37 38 39 41 44 47 47 45 45 46 45 43 39 36 35 35 39 40 27 13 11 15 18 27 38 39 40 43 43 44 44 40 39 38 27 21 33 37 25 29 53 51 37 33 29 27 26 20 18 15 13 18 30 29 27 26 24
36 37 39 39 40 41 39 38 38 41 43 45 47 50 52 54 55 55 54 54 53 52 51 51 50 49 48 47 45 43 42 41 39 38 40 42 45 46 46 45 45 45 44 42 38 37 37 39 41 39 34 32 36 37 35 33 30 35 42 44 45 44 43 42 36 32 35 37 33 37 50 60 58 50 46 42 36 30 28 23 19 20 29 36 33 31 31 30
35 37 37 36 35 39 44 44 41 40 41 42 45 47 49 53 55 53 52 53 53 53 53 53 52 50 48 47 46 46 47 46 43 43 44 45 45 44 43 44 44 43 43 43 40 39 39 39 39 43 44 44 49 50 44 38 34 35 37 39 42 43 45 46 42 44 48 35 29 49 59 55 59 60 54 52 46 40 35 28 26 34 40 38 36 34 33 34
38 39 38 34 32 34 40 46 47 45 42 40 43 46 47 49 51 51 51 51 51 51 50 51 53 53 52 51 48 46 47 46 45 47 48 49 49 46 43 42 41 41 43 44 43 42 42 41 41 43 44 45 48 48 47 47 46 45 42 40 41 41 43 48 49 54 54 43 42 58 57 51 61 62 55 56 54 48 41 36 40 46 42 37 37 36 36 36
42 42 39 36 35 36 37 40 43 47 47 42 39 42 45 48 50 51 50 50 51 50 48 50 53 54 54 53 50 48 47 44 44 47 50 51 51 50 47 44 43 42 43 44 45 45 43 43 44 45 45 46 48 49 49 50 49 50 49 44 41 40 42 48 52 55 56 55 56 59 55 55 62 61 58 57 54 50 46 45 49 48 42 40 40 38 38 38
43 45 43 38 36 38 39 38 38 42 48 49 43 39 39 44 50 52 49 49 50 50 49 50 51 52 53 54 51 51 52 51 51 52 52 50 51 52 52 51 48 45 43 44 45 45 44 44 44 44 43 43 49 52 51 51 51 51 48 44 41 41 44 51 54 53 54 57 57 55 56 61 64 62 62 59 56 55 53 53 53 49 45 43 39 37 38 38
39 43 44 42 39 39 39 41 40 38 43 48 47 44 39 38 42 47 51 51 49 48 47 47 46 47 48 52 53 52 52 53 55 56 55 53 52 51 51 51 51 47 43 44 45 45 46 45 44 41 35 38 51 54 51 50 48 45 46 46 48 51 52 55 55 52 52 54 53 53 58 64 64 61 61 60 58 57 56 54 51 47 43 39 36 37 38 37
36 38 41 42 42 40 38 40 41 41 43 45 46 48 48 42 35 34 40 44 44 46 47 46 45 44 45 49 50 45 42 44 50 54 56 55 53 51 48 47 48 48 45 43 43 45 46 44 44 39 30 36 51 54 50 43 31 31 47 57 60 63 59 54 54 55 56 55 52 55 61 63 60 59 61 60 58 56 52 48 44 42 40 37 37 40 40 39
Wind_Direction
205 207 208 208 209 209 208 208 208 209 210 211 212 213 213 213 214 215 215 216 215 214 214 212 209 204 201 200 200 204 209 212 213 217 221 223 221 221 219 216 218 217 214 213 209 206 208 211 210 210 206 203 204 207 213 217 221 225 228 233 239 243 244 242 240 239 234 215 212 231 264 279 266 268 280 280 292 299 290 287 273 261 259 259 259 265 276 286
205 207 208 209 209 209 209 208 209 209 210 210 210 212 212 212 212 213 214 213 212 211 210 210 206 203 202 202 203 208 215 218 221 226 227 226 224 221 219 217 217 217 215 213 211 208 209 214 211 210 208 205 204 208 213 219 224 227 231 237 242 245 246 241 234 228 217 201 203 211 245 280 265 259 265 274 285 289 294 308 281 246 248 254 262 275 283 287
206 207 208 209 209 210 209 209 209 210 210 209 209 210 211 211 211 212 212 211 209 208 208 207 204 202 203 203 207 213 218 221 226 231 231 229 228 223 220 218 216 216 215 211 209 210 209 209 206 206 206 205 205 209 214 220 225 228 234 239 244 246 243 238 231 222 211 207 216 222 248 272 264 256 260 272 279 281 300 305 266 247 257 265 271 279 281 282
207 208 209 209 209 210 210 210 210 210 210 209 208 208 209 210 210 210 209 208 207 205 205 204 203 202 203 206 210 216 221 225 228 231 232 231 229 226 224 222 218 215 216 213 211 213 210 207 207 205 203 203 211 218 220 224 227 231 235 239 243 245 240 235 225 219 217 221 233 242 253 263 259 255 258 265 269 281 289 271 263 262 268 274 276 277 278 277
207 208 208 209 209 209 209 210 210 210 209 209 208 207 207 207 207 208 208 206 204 203 202 202 202 203 205 209 212 218 222 225 230 228 228 230 228 226 224 222 219 217 217 214 211 212 211 216 217 208 198 199 212 224 226 229 232 235 239 239 241 241 236 231 227 226 230 237 247 255 257 256 253 255 257 258 261 273 273 268 270 270 270 273 274 275 277 274
207 208 208 208 208 208 208 209 209 209 209 208 207 206 205 204 205 205 204 203 201 200 199 200 202 203 207 210 214 219 218 220 229 225 223 227 224 223 223 221 219 217 218 214 210 211 210 217 223 213 196 199 209 218 226 233 236 237 242 242 240 240 238 235 234 233 239 247 254 258 256 254 258 263 262 261 265 266 265 270 272 270 269 269 269 271 272 270
209 208 208 207 207 207 207 207 207 207 207 206 206 206 204 203 202 201 200 199 198 197 197 200 202 205 208 212 215 218 217 219 225 222 221 223 220 220 219 219 219 216 216 214 211 211 213 217 224 219 205 204 210 213 224 235 242 243 245 245 241 239 240 241 240 239 245 253 260 262 262 262 263 266 268 273 275 265 263 267 270 271 270 269 269 268 266 266
215 213 210 209 208 207 206 206 206 206 205 204 203 203 202 201 200 198 197 195 196 196 198 201 203 207 210 212 215 217 216 219 222 217 214 215 216 217 217 220 222 219 219 219 219 219 222 224 224 222 216 215 218 220 226 233 242 245 245 245 244 243 244 246 247 249 254 261 267 270 270 268 267 271 275 283 279 273 271 267 267 268 267 268 269 268 267 266
215 215 213 211 209 208 207 205 205 205 204 203 202 201 200 199 198 197 195 194 196 198 201 204 205 210 213 214 216 216 216 218 217 213 210 210 212 216 221 226 228 227 226 226 228 230 233 234 230 223 218 220 222 226 234 237 241 245 245 245 247 251 253 256 258 259 262 267 270 274 274 272 274 278 284 293 285 280 275 267 265 265 266 267 267 269 270 270
210 212 212 211 209 207 205 203 202 201 201 201 200 199 198 197 197 197 197 197 199 200 203 206 208 212 215 217 217 215 218 219 216 215 216 217 218 222 226 229 234 235 233 233 234 237 239 239 235 228 224 227 228 228 237 243 246 252 253 252 251 253 256 259 261 263 265 266 269 273 273 274 275 278 291 305 286 280 274 270 268 267 268 268 268 269 271 272
205 205 205 205 205 205 203 202 200 199 199 198 198 198 197 197 198 199 200 200 202 203 206 208 212 215 218 221 219 216 220 219 217 220 222 222 223 224 225 231 236 238 239 238 237 239 242 241 238 233 229 233 236 240 246 248 253 258 261 261 258 256 256 257 259 262 264 264 269 272 272 273 273 279 297 296 277 274 271 270 270 269 269 268 269 270 271 271
199 200 200 200 201 202 203 202 201 201 201 199 198 198 199 199 201 202 203 204 206 207 208 211 215 218 221 223 220 218 223 220 219 223 225 226 226 225 227 230 234 239 242 240 239 242 243 242 240 235 234 239 244 250 254 253 255 258 262 265 265 263 259 257 257 258 261 265 268 274 276 273 273 284 297 285 274 272 271 271 270 269 267 267 268 269 270 269
197 197 198 198 200 201 202 203 204 204 203 202 202 202 202 203 204 206 206 207 209 210 212 215 218 221 224 225 222 222 224 222 222 225 227 228 227 229 230 232 236 239 240 240 240 242 243 244 242 239 239 243 245 248 254 258 257 259 263 265 266 266 265 261 260 259 260 263 265 270 274 274 278 288 289 283 280 276 275 273 269 267 266 266 266 267 269 269
201 200 200 200 201 202 204 205 206 207 206 205 204 205 206 206 207 209 211 212 214 216 217 220 222 225 228 227 224 225 226 225 225 226 228 229 230 233 235 237 240 241 242 243 242 243 245 245 245 244 244 245 247 250 254 258 262 265 266 265 263 262 266 268 266 262 257 260 264 266 270 276 283 285 284 285 284 278 274 270 266 265 264 263 264 266 269 271
209 208 206 205 204 205 206 207 209 209 209 208 208 208 208 210 211 213 215 217 220 222 223 226 227 230 232 230 228 227 226 227 229 229 230 230 232 236 240 242 242 244 245 244 244 245 245 245 246 247 247 247 249 251 254 260 265 267 267 264 262 263 267 272 268 262 258 260 264 263 268 277 283 283 284 286 284 280 274 267 263 262 262 264 266 269 270 272
215 213 212 210 208 207 208 209 210 210 211 211 211 212 212 213 214 216 219 221 224 226 228 230 232 235 235 233 233 230 228 229 229 231 232 233 235 238 241 243 244 245 247 247 247 245 244 246 247 247 248 249 250 254 259 264 265 265 266 265 268 271 270 268 265 263 263 263 264 263 266 274 280 281 282 283 283 281 276 269 265 264 266 268 269 270 270 272
217 217 216 214 212 211 209 209 210 211 211 211 212 213 214 215 217 219 221 223 226 228 231 233 234 237 238 236 235 234 231 231 230 232 233 234 236 238 239 242 244 246 247 248 247 248 249 247 246 247 250 252 253 254 255 261 268 269 269 270 271 272 268 266 264 264 266 267 269 268 268 272 277 279 280 281 280 276 273 271 269 269 270 271 271 272 272 273
216 219 219 218 217 215 214 213 213 212 212 212 214 214 216 218 220 223 224 226 228 231 234 237 238 241 242 239 238 237 233 230 230 231 232 234 235 237 239 241 243 246 246 247 250 252 251 247 247 248 250 253 257 259 257 266 279 277 270 269 267 266 267 268 269 270 272 271 271 270 271 276 280 278 278 280 278 274 272 271 271 272 274 274 275 275 274 273
216 218 219 221 221 219 218 218 218 217 216 216 216 217 219 221 224 226 229 231 233 237 241 244 244 244 244 240 236 235 232 230 230 230 232 234 235 237 240 241 242 244 245 247 251 250 248 248 247 247 252 263 274 276 268 268 273 269 265 265 267 269 270 273 277 278 278 275 273 272 275 280 281 277 276 277 275 273 273 274 277 280 280 280 279 277 275 273
221 219 219 221 222 223 222 221 222 222 222 222 221 221 223 225 228 231 233 238 241 243 245 246 247 246 245 241 236 232 229 230 231 231 233 234 235 238 239 240 241 242 244 248 248 246 248 250 248 251 262 277 281 273 264 262 263 265 267 268 270 271 274 280 282 280 280 278 277 279 280 281 280 279 279 277 273 271 274 279 283 285 285 284 281 277 274 273
225 224 223 222 222 223 224 224 225 225 226 227 226 227 229 230 234 238 239 241 242 243 245 247 248 249 248 245 240 235 232 231 232 232 233 233 234 236 237 239 240 242 245 245 242 244 249 250 250 257 266 267 262 262 264 266 268 268 269 271 271 274 281 288 284 281 281 279 280 283 281 279 280 281 280 277 276 277 280 283 285 287 286 283 280 276 274 274
226 226 226 225 225 225 225 226 227 228 229 230 231 232 234 235 239 243 245 245 243 242 244 246 248 250 250 249 246 241 237 234 233 233 234 234 234 235 238 239 240 242 242 238 238 246 253 253 256 262 262 261 261 265 268 269 269 269 270 272 274 279 288 291 287 286 284 281 283 284 281 280 281 281 280 279 282 285 286 286 288 289 287 284 281 277 274 273
230 230 228 227 227 227 227 227 227 229 231 232 234 235 237 239 242 245 248 251 249 245 245 247 248 250 250 250 248 246 245 241 237 235 234 235 235 236 238 238 239 240 238 238 242 249 253 254 258 259 259 261 261 263 264 266 268 270 273 274 277 284 291 291 291 291 288 285 284 286 284 281 281 280 281 283 284 285 286 287 290 290 288 286 282 278 274 272
232 233 233 231 228 227 227 228 229 229 230 233 234 235 238 240 242 245 250 256 255 250 248 249 250 249 248 250 250 247 246 244 241 239 236 236 236 236 238 239 240 241 240 243 249 252 252 254 259 261 262 261 260 261 263 268 272 276 278 277 280 286 287 287 289 289 287 285 284 288 288 284 283 283 284 287 285 284 288 290 291 290 287 285 281 278 276 274
230 233 235 236 233 230 227 227 229 228 230 231 231 232 235 236 241 247 253 262 263 256 251 251 252 252 250 249 248 246 247 244 241 239 239 238 238 238 240 239 239 241 242 244 248 251 251 251 255 260 261 261 263 265 266 270 274 277 277 277 282 286 285 285 287 289 287 285 285 289 292 288 285 286 289 290 288 289 293 294 294 295 291 287 283 281 278 274
230 232 236 238 237 235 231 230 228 227 228 224 222 225 228 233 239 248 255 268 270 261 256 254 252 251 248 245 244 244 247 247 242 239 239 238 237 238 240 239 240 242 243 244 248 251 252 251 254 257 259 260 262 262 262 266 270 272 273 277 282 283 283 284 285 284 281 281 282 282 282 285 286 288 290 289 290 293 296 297 300 301 295 289 285 284 280 276
234 235 237 240 240 238 236 235 230 227 226 219 219 222 223 231 237 248 257 277 275 263 258 255 251 249 247 245 245 240 241 246 242 237 238 237 236 237 237 239 239 240 240 239 242 249 253 253 255 257 258 259 259 261 264 266 266 267 270 275 277 279 283 282 281 277 274 278 278 273 273 278 283 286 289 290 292 294 295 299 305 303 294 286 285 285 283 280
235 236 237 239 240 239 238 238 234 230 228 224 225 228 232 238 246 252 252 277 270 262 259 254 250 249 248 246 244 237 239 246 243 238 238 236 235 236 237 240 241 242 243 240 244 252 258 259 259 259 258 259 260 265 269 265 262 263 268 273 273 276 279 278 279 275 278 283 276 268 267 269 276 281 287 292 291 294 298 303 305 301 292 287 288 288 284 282
235 236 237 236 237 238 237 236 234 233 233 232 233 236 240 245 248 245 233 228 255 257 256 251 248 247 246 243 241 237 238 242 241 240 240 236 235 236 237 240 241 243 243 243 248 254 258 258 259 259 257 258 262 265 262 256 255 259 263 268 270 274 275 278 280 275 278 279 267 266 262 253 276 280 282 290 291 295 302 303 303 299 291 290 291 290 287 288
236 235 237 236 234 236 236 236 236 236 236 236 236 238 241 243 235 218 170 236 247 251 249 247 246 246 246 240 237 236 236 238 238 238 237 235 235 235 237 239 239 239 240 242 246 250 252 254 255 254 255 257 258 256 251 244 243 249 254 261 267 272 274 275 274 272 278 269 266 273 265 249 269 282 280 289 294 298 301 301 302 294 285 287 291 291 293 294
238 236 236 235 234 235 235 235 237 239 240 237 234 234 232 228 220 197 201 240 245 251 246 243 245 244 247 244 240 239 236 237 237 234 232 233 233 231 231 232 231 232 236 239 243 246 247 249 250 251 253 254 254 251 247 242 239 242 248 255 260 269 277 272 263 256 236 262 275 285 267 240 231 248 276 288 293 296 298 299 295 281 274 286 300 298 295 293
237 236 236 235 236 238 237 236 234 237 242 235 227 223 211 204 203 199 223 237 244 254 245 243 247 244 245 245 243 245 241 238 238 235 234 233 231 232 232 232 230 226 229 236 240 243 245 247 248 250 251 251 250 248 244 240 237 238 242 243 240 253 301 266 241 231 224 253 273 278 263 237 241 260 277 286 292 295 298 298 273 250 274 300 303 298 294 292
235 235 236 236 236 238 239 240 235 235 242 237 224 210 195 187 199 210 222 228 228 244 244 242 245 242 242 240 238 238 236 236 238 236 234 232 232 236 237 237 235 229 232 238 238 239 246 250 247 247 248 248 247 244 240 239 236 236 238 234 222 183 73 257 248 285 257 258 267 266 265 256 258 272 283 285 294 296 296 290 229 238 291 299 293 291 294 295
235 234 235 236 236 236 237 240 239 237 243 244 230 205 188 190 215 215 221 227 226 233 243 239 236 232 233 237 238 235 231 232 234 233 231 228 227 232 233 234 234 233 237 240 240 237 240 249 249 247 248 249 249 248 248 248 246 247 245 239 233 226 217 226 232 226 262 286 280 257 248 250 259 274 276 278 290 289 286 282 269 277 289 281 275 290 296 293
237 235 234 235 235 236 236 236 239 238 240 246 232 202 191 202 215 216 222 228 226 227 235 235 225 221 224 230 235 234 230 230 231 229 228 227 227 231 233 232 231 232 232 232 237 237 234 246 252 250 250 251 252 252 251 247 244 247 243 233 235 238 238 245 258 257 280 314 284 248 246 258 267 270 270 278 285 284 284 286 283 280 264 254 282 293 288 287
238 236 235 235 234 236 235 235 238 235 238 245 222 196 203 219 223 224 228 232 230 227 229 227 210 212 218 222 226 226 224 227 227 225 226 229 232 235 236 236 235 235 233 230 231 230 230 244 250 248 248 249 247 246 244 239 235 234 230 226 232 239 239 238 256 272 285 298 272 255 259 268 275 278 278 281 284 284 287 286 276 253 256 279 287 280 277 290
239 238 236 235 234 234 234 236 239 234 239 243 222 206 223 235 234 235 235 237 236 230 229 228 219 217 218 218 222 222 220 221 222 223 225 226 230 234 235 237 236 236 238 237 233 232 233 243 250 248 246 245 242 238 234 232 231 227 225 230 234 236 234 228 238 299 306 266 271 259 264 274 276 278 282 283 284 287 284 277 273 272 278 281 271 265 281 295
240 239 238 236 234 234 234 235 236 238 243 242 231 231 243 245 244 245 241 239 238 234 233 232 230 229 226 224 226 225 220 219 220 222 224 224 230 238 237 236 235 234 238 237 233 234 237 242 250 249 244 241 238 232 225 224 226 226 229 232 226 221 221 214 206 244 234 219 281 269 273 277 268 267 281 286 287 288 282 272 272 264 255 262 273 281 288 292
240 240 239 237 235 234 234 233 233 238 241 234 230 237 244 246 248 246 242 243 242 237 237 238 237 233 231 233 234 229 224 225 226 224 224 225 233 244 243 239 240 238 236 234 231 233 234 236 246 246 240 233 226 223 222 221 219 220 226 228 226 226 220 210 207 213 214 187 269 288 290 277 272 276 287 289 288 290 274 234 206 187 232 283 291 286 284 299
241 242 240 238 236 236 235 233 231 235 237 234 236 243 245 248 249 244 242 245 243 239 240 243 241 235 235 238 236 233 231 230 231 228 229 231 238 247 248 242 242 241 237 234 233 234 232 231 239 243 234 224 223 228 231 232 226 221 222 222 223 222 215 218 223 219 214 164 212 317 293 275 277 283 285 280 282 282 223 170 177 227 285 296 293 279 280 301
241 242 241 239 237 235 233 232 229 230 235 237 241 247 249 250 250 248 245 241 237 238 240 242 242 240 241 240 236 235 233 230 231 229 231 235 240 247 250 246 242 241 236 230 230 231 229 229 233 234 232 233 237 240 241 240 239 237 236 234 234 228 216 212 221 218 218 219 227 199 277 274 276 278 276 277 272 236 192 183 229 277 292 293 288 284 289 300
238 240 242 241 238 234 231 231 229 229 233 236 238 243 246 247 248 250 249 242 236 236 238 240 241 241 242 242 241 239 234 232 232 230 232 238 242 248 253 253 247 242 239 236 237 238 233 231 231 232 238 244 246 245 242 241 240 239 240 242 242 233 219 210 204 220 217 222 237 231 259 271 272 275 275 262 206 196 207 231 261 278 289 293 291 290 296 299
236 237 239 239 239 235 230 231 232 231 233 237 239 242 245 248 249 250 250 247 241 237 237 238 239 240 240 241 242 240 236 235 235 236 239 242 246 251 252 252 249 244 239 238 240 239 229 224 227 232 240 247 249 248 247 244 238 233 233 234 233 230 225 222 230 239 225 218 229 206 237 265 267 268 252 210 202 232 247 252 261 271 287 296 293 290 295 297
236 237 236 233 229 230 230 228 229 230 233 235 238 241 243 247 249 249 249 249 247 243 239 238 239 240 240 240 240 239 238 236 236 240 243 244 248 252 249 247 247 245 242 240 241 238 226 220 223 227 238 248 248 247 243 238 231 228 230 231 231 233 231 227 231 235 234 235 230 203 236 257 259 262 254 240 249 261 255 250 251 248 276 294 296 293 294 296
236 237 237 233 226 228 234 233 231 232 234 236 238 239 241 244 246 248 249 248 248 247 245 244 244 243 242 241 240 239 239 239 240 242 242 242 247 250 247 245 245 246 247 247 246 243 237 231 227 219 210 227 234 233 235 234 230 229 233 233 232 232 228 226 227 222 230 243 233 213 239 254 255 258 260 262 265 261 253 255 242 223 267 291 296 294 293 294
234 237 238 235 229 227 231 234 235 237 237 237 239 240 240 242 245 247 248 245 245 247 246 247 248 245 242 241 239 239 239 239 240 242 243 244 247 249 247 244 244 246 247 246 243 242 240 237 234 231 228 232 238 241 243 243 236 234 239 238 235 234 231 229 225 220 230 240 235 232 244 255 257 257 259 262 261 260 261 257 237 244 276 290 292 291 291 294
231 235 235 235 232 227 226 227 229 235 238 239 240 240 240 242 244 246 246 244 246 248 247 246 247 245 242 241 240 240 241 239 238 239 242 245 247 250 250 247 244 244 245 243 239 237 234 233 236 239 239 241 246 248 250 253 253 252 251 246 242 239 234 226 223 231 237 233 238 247 248 252 259 261 260 260 260 261 262 254 249 265 280 287 288 287 289 294
228 232 233 232 231 230 229 227 226 230 235 237 240 242 242 243 242 241 243 245 246 246 244 243 245 246 245 245 243 242 242 240 238 239 241 243 245 247 248 247 245 242 242 241 237 234 233 233 236 240 242 245 248 250 250 252 255 258 258 256 251 245 237 230 232 242 240 227 238 254 252 251 261 266 266 265 265 264 261 259 264 272 278 282 285 286 287 293
226 230 231 229 230 231 231 230 228 229 230 232 239 243 243 243 242 241 243 246 246 245 242 242 246 248 249 248 245 241 240 239 238 239 242 242 242 242 243 244 243 239 237 239 237 234 232 234 237 238 240 243 245 247 249 250 252 256 257 256 254 250 247 245 247 251 245 235 243 256 258 258 263 267 268 269 270 268 265 265 268 272 276 280 283 285 288 292
227 229 230 230 231 231 230 230 230 231 232 235 242 246 243 242 243 243 244 244 243 245 244 244 248 251 251 250 245 242 244 246 245 246 248 244 240 241 242 241 241 239 235 235 236 235 232 233 236 237 237 239 243 245 247 248 250 253 253 252 251 251 251 250 251 250 243 239 245 252 257 261 263 264 265 267 268 267 266 266 268 272 276 280 282 284 287 290
229 230 231 233 235 234 233 232 232 234 235 235 239 243 242 243 243 244 245 245 245 247 247 248 253 254 252 251 247 247 251 253 253 254 254 248 244 246 247 244 243 243 238 235 235 235 233 232 233 235 234 237 241 244 245 248 251 251 250 249 248 246 245 245 246 246 241 241 245 246 249 257 263 264 264 266 266 267 267 268 270 274 277 279 283 285 286 287
230 231 231 234 237 237 237 238 237 239 240 235 235 239 240 241 241 242 246 248 249 252 251 252 255 255 254 252 249 253 262 263 261 260 255 248 246 248 249 248 246 244 241 238 236 236 236 234 233 234 236 240 244 246 247 248 248 244 245 247 247 245 245 244 245 247 248 247 246 245 249 258 265 266 266 267 269 271 272 274 276 277 277 277 280 282 284 283
Height
3124 3126 3127 3129 3130 3132 3133 3134 3136 3137 3139 3140 3141 3143 3144 3145 3146 3148 3149 3150 3152 3153 3154 3155 3156 3157 3158 3159 3160 3161 3162 3163 3164 3164 3165 3166 3167 3167 3168 3168 3169 3169 3170 3170 3171 3171 3172 3173 3173 3174 3174 3175 3175 3176 3177 3177 3178 3178 3178 3179 3179 3180 3180 3181 3182 3182 3182 3182 3182 3183 3183 3183 3183 3184 3184 3184 3184 3184 3185 3185 3186 3186 3186 3186 3187 3187 3188 3188
3123 3125 3126 3128 3129 3130 3132 3133 3135 3136 3137 3139 3141 3142 3143 3144 3146 3147 3148 3150 3151 3152 3154 3155 3156 3157 3158 3159 3160 3161 3162 3162 3163 3164 3165 3166 3166 3167 3168 3168 3169 3169 3169 3170 3171 3171 3172 3172 3173 3173 3174 3174 3175 3176 3176 3177 3177 3177 3178 3178 3178 3179 3180 3181 3181 3182 3182 3182 3182 3182 3182 3182 3183 3183 3183 3183 3183 3184 3184 3184 3185 3185 3185 3186 3186 3187 3187 3187
3122 3124 3125 3126 3128 3129 3131 3132 3134 3135 3137 3138 3140 3141 3142 3144 3145 3147 3148 3149 3150 3152 3153 3154 3155 3156 3157 3158 3160 3160 3161 3162 3163 3164 3164 3165 3166 3167 3167 3168 3168 3169 3169 3170 3170 3171 3171 3172 3173 3173 3174 3174 3175 3175 3176 3176 3176 3177 3177 3177 3178 3179 3179 3180 3180 3181 3181 3181 3182 3182 3182 3182 3182 3182 3183 3183 3183 3183 3183 3184 3184 3184 3185 3185 3185 3186 3186 3186
3121 3123 3124 3125 3127 3128 3130 3132 3133 3134 3136 3137 3139 3140 3141 3143 3144 3146 3147 3148 3149 3151 3152 3153 3154 3155 3157 3158 3159 3160 3161 3162 3163 3164 3164 3165 3165 3166 3167 3167 3168 3168 3169 3169 3170 3170 3171 3172 3172 3173 3173 3174 3174 3175 3175 3176 3176 3176 3177 3177 3177 3178 3178 3179 3180 3180 3180 3181 3181 3181 3182 3182 3182 3182 3182 3182 3182 3182 3183 3183 3183 3184 3184 3184 3184 3185 3185 3185
3121 3122 3123 3125 3126 3127 3129 3130 3132 3133 3135 3136 3138 3139 3140 3142 3143 3145 3146 3147 3148 3150 3151 3152 3153 3155 3156 3157 3159 3160 3161 3162 3163 3163 3164 3164 3165 3166 3166 3167 3167 3168 3168 3169 3170 3170 3171 3171 3172 3172 3172 3173 3173 3174 3175 3175 3175 3176 3176 3177 3177 3177 3178 3178 3179 3179 3180 3180 3181 3181 3181 3181 3181 3181 3181 3181 3182 3182 3182 3182 3182 3183 3183 3183 3183 3184 3184 3184
3120 3121 3122 3124 3125 3126 3128 3129 3131 3132 3134 3135 3137 3138 3139 3141 3142 3143 3145 3146 3148 3149 3150 3152 3153 3154 3156 3157 3158 3159 3161 3162 3162 3163 3163 3164 3165 3165 3166 3166 3167 3167 3168 3169 3169 3170 3170 3171 3171 3171 3172 3172 3173 3174 3174 3174 3175 3175 3176 3176 3177 3177 3177 3178 3178 3179 3179 3180 3180 3180 3180 3180 3180 3180 3180 3180 3181 3181 3181 3181 3181 3182 3182 3182 3182 3183 3183 3183
3119 3120 3122 3123 3124 3125 3127 3128 3130 3131 3133 3134 3136 3137 3138 3140 3141 3143 3144 3146 3147 3148 3150 3151 3152 3154 3155 3156 3157 3159 3160 3161 3161 3162 3163 3163 3164 3164 3165 3166 3166 3167 3167 3168 3168 3169 3169 3170 3170 3171 3171 3172 3172 3173 3173 3174 3174 3175 3175 3176 3176 3176 3177 3177 3178 3178 3179 3179 3179 3179 3179 3180 3179 3179 3179 3179 3180 3180 3180 3180 3180 3180 3181 3181 3181 3181 3182 3182
3118 3120 3121 3122 3123 3125 3126 3127 3129 3130 3132 3133 3135 3136 3138 3139 3140 3142 3143 3145 3146 3148 3149 3151 3152 3153 3154 3156 3157 3158 3159 3160 3161 3161 3162 3163 3163 3164 3165 3165 3166 3166 3167 3167 3168 3168 3169 3169 3170 3171 3171 3171 3172 3172 3173 3173 3174 3174 3175 3175 3175 3176 3176 3177 3177 3178 3178 3178 3178 3178 3178 3178 3178 3178 3178 3179 3179 3179 3179 3179 3179 3179 3179 3179 3180 3180 3180 3180
3117 3119 3120 3121 3123 3124 3125 3127 3128 3129 3131 3132 3134 3135 3137 3138 3140 3141 3143 3144 3146 3147 3149 3150 3151 3152 3154 3155 3156 3157 3158 3159 3160 3161 3161 3162 3163 3163 3164 3165 3165 3165 3166 3166 3167 3167 3168 3169 3170 3170 3171 3171 3171 3172 3172 3173 3173 3174 3174 3175 3175 3175 3175 3176 3176 3176 3177 3177 3177 3177 3177 3176 3176 3176 3176 3177 3178 3178 3178 3178 3178 3178 3178 3178 3178 3178 3178 3179
3116 3118 3119 3121 3122 3123 3124 3126 3127 3128 3130 3131 3133 3134 3136 3138 3139 3140 3142 3143 3145 3147 3148 3149 3151 3152 3153 3154 3155 3156 3157 3158 3159 3160 3160 3161 3162 3163 3163 3164 3164 3165 3165 3166 3166 3167 3167 3168 3169 3169 3170 3170 3171 3171 3172 3172 3173 3173 3173 3174 3174 3174 3175 3175 3175 3175 3175 3176 3176 3176 3175 3175 3175 3175 3175 3176 3176 3176 3176 3176 3177 3177 3177 3176 3176 3177 3177 3177
3115 3116 3118 3120 3121 3122 3124 3125 3126 3127 3128 3130 3132 3133 3135 3137 3138 3140 3141 3143 3144 3146 3147 3148 3149 3150 3152 3152 3154 3155 3156 3157 3158 3158 3159 3160 3161 3162 3162 3163 3164 3164 3164 3165 3165 3166 3167 3167 3168 3169 3169 3169 3170 3170 3171 3171 3172 3172 3173 3173 3173 3174 3174 3174 3174 3174 3174 3175 3175 3175 3174 3173 3173 3173 3174 3175 3174 3174 3174 3175 3175 3175 3175 3175 3175 3175 3175 3175
3114 3115 3117 3119 3120 3122 3123 3124 3125 3127 3128 3129 3131 3132 3134 3136 3137 3139 3140 3142 3143 3144 3146 3147 3148 3149 3150 3151 3153 3154 3154 3155 3156 3157 3158 3159 3160 3161 3162 3162 3163 3163 3164 3164 3165 3165 3166 3166 3167 3168 3168 3169 3169 3170 3170 3170 3171 3171 3172 3172 3172 3172 3172 3173 3173 3173 3173 3174 3174 3173 3172 3170 3171 3172 3173 3173 3172 3173 3173 3173 3173 3173 3173 3173 3173 3173 3173 3173
3113 3114 3116 3117 3119 3121 3122 3124 3125 3126 3127 3129 3130 3132 3133 3135 3136 3138 3139 3140 3141 3143 3144 3145 3146 3147 3148 3150 3152 3152 3153 3154 3155 3156 3157 3158 3159 3160 3161 3161 3162 3163 3163 3163 3164 3164 3165 3165 3166 3167 3167 3168 3168 3169 3169 3169 3170 3171 3171 3171 3171 3171 3171 3171 3172 3172 3172 3172 3172 3173 3169 3167 3170 3171 3171 3171 3171 3171 3171 3171 3171 3171 3171 3171 3171 3171 3171 3171
3112 3113 3115 3116 3118 3120 3121 3123 3124 3125 3127 3128 3130 3131 3133 3134 3135 3136 3138 3139 3140 3141 3142 3143 3145 3146 3147 3148 3150 3150 3152 3153 3154 3155 3156 3157 3158 3159 3160 3161 3161 3162 3162 3163 3163 3163 3164 3164 3165 3166 3166 3167 3167 3168 3168 3168 3169 3170 3170 3170 3170 3169 3169 3170 3170 3170 3171 3171 3171 3172 3168 3165 3168 3169 3169 3169 3169 3169 3169 3169 3169 3169 3169 3169 3169 3169 3169 3169
3111 3112 3114 3115 3117 3118 3120 3121 3123 3124 3126 3127 3129 3130 3131 3133 3134 3135 3136 3137 3139 3140 3141 3142 3143 3144 3145 3147 3148 3149 3150 3152 3153 3154 3155 3156 3157 3158 3159 3160 3160 3161 3161 3162 3162 3163 3163 3163 3164 3165 3165 3166 3166 3166 3167 3167 3168 3168 3169 3168 3168 3168 3168 3169 3169 3169 3170 3170 3169 3170 3166 3164 3167 3167 3167 3167 3167 3167 3167 3167 3167 3167 3167 3167 3167 3167 3167 3167
3110 3111 3113 3114 3116 3117 3118 3120 3121 3123 3125 3126 3128 3129 3130 3131 3132 3134 3134 3136 3137 3138 3139 3140 3141 3142 3143 3145 3146 3147 3149 3150 3152 3153 3153 3155 3155 3156 3157 3158 3159 3159 3160 3161 3161 3162 3162 3163 3163 3164 3164 3164 3165 3165 3166 3166 3166 3167 3167 3166 3166 3167 3167 3167 3167 3167 3168 3168 3167 3167 3165 3163 3165 3165 3165 3165 3165 3165 3165 3165 3165 3165 3165 3165 3164 3164 3164 3165
3108 3110 3111 3113 3114 3116 3117 3119 3120 3122 3123 3125 3126 3128 3129 3130 3131 3132 3133 3134 3135 3136 3137 3138 3139 3140 3142 3143 3144 3146 3148 3149 3150 3151 3152 3153 3154 3155 3156 3156 3157 3158 3159 3159 3160 3161 3161 3162 3162 3162 3163 3163 3163 3164 3164 3164 3164 3165 3165 3165 3165 3165 3165 3165 3166 3166 3166 3165 3165 3164 3162 3161 3163 3164 3163 3163 3163 3162 3162 3162 3162 3162 3162 3162 3162 3162 3162 3162
3105 3107 3109 3111 3112 3114 3116 3117 3119 3120 3122 3123 3125 3126 3127 3128 3130 3130 3132 3133 3134 3135 3135 3136 3138 3139 3140 3142 3143 3145 3146 3147 3148 3148 3149 3150 3152 3153 3154 3155 3156 3156 3157 3158 3159 3159 3160 3160 3161 3161 3161 3161 3161 3162 3163 3163 3163 3163 3163 3163 3163 3163 3163 3163 3164 3164 3164 3163 3162 3161 3159 3158 3161 3161 3161 3161 3160 3159 3159 3160 3159 3159 3159 3159 3158 3159 3159 3159
3103 3105 3107 3109 3110 3112 3114 3116 3117 3119 3120 3121 3123 3124 3125 3127 3128 3129 3130 3131 3132 3133 3134 3136 3136 3137 3138 3140 3141 3143 3143 3144 3145 3146 3147 3148 3150 3151 3152 3153 3154 3154 3155 3156 3157 3158 3158 3158 3159 3159 3160 3160 3160 3161 3161 3161 3161 3161 3161 3161 3161 3161 3161 3162 3162 3162 3161 3160 3159 3158 3156 3156 3157 3158 3159 3159 3157 3156 3156 3156 3156 3156 3156 3155 3155 3155 3155 3155
3101 3102 3104 3106 3108 3110 3111 3113 3115 3117 3118 3119 3121 3122 3123 3125 3126 3127 3128 3129 3131 3132 3133 3133 3134 3135 3136 3138 3139 3140 3141 3142 3143 3144 3145 3146 3148 3149 3150 3150 3151 3152 3153 3155 3155 3156 3156 3156 3156 3158 3159 3159 3159 3159 3159 3159 3159 3159 3159 3159 3159 3159 3159 3160 3161 3160 3159 3157 3155 3155 3154 3152 3153 3154 3156 3156 3153 3152 3153 3153 3153 3153 3152 3152 3152 3151 3151 3152
3098 3100 3102 3103 3105 3107 3109 3111 3112 3114 3116 3117 3119 3120 3121 3123 3124 3125 3126 3127 3128 3129 3130 3130 3131 3132 3134 3136 3137 3138 3139 3140 3140 3142 3143 3144 3145 3146 3147 3148 3149 3150 3151 3153 3153 3153 3154 3153 3155 3157 3158 3158 3158 3157 3157 3157 3157 3157 3157 3157 3157 3157 3157 3158 3158 3157 3157 3154 3151 3152 3150 3148 3149 3150 3152 3152 3149 3149 3150 3150 3150 3149 3149 3148 3148 3147 3148 3148
3096 3097 3099 3101 3102 3104 3106 3108 3110 3112 3114 3115 3117 3118 3120 3122 3122 3123 3124 3124 3125 3126 3127 3127 3128 3129 3131 3133 3135 3136 3137 3137 3139 3140 3141 3142 3143 3144 3145 3146 3147 3149 3150 3150 3151 3152 3151 3151 3154 3156 3155 3156 3156 3155 3155 3155 3155 3155 3155 3155 3155 3155 3155 3155 3156 3155 3154 3151 3148 3149 3146 3143 3146 3147 3147 3148 3146 3145 3146 3146 3146 3145 3144 3144 3144 3144 3144 3144
3093 3094 3096 3098 3100 3102 3103 3106 3107 3109 3111 3113 3115 3117 3118 3119 3120 3120 3121 3120 3121 3123 3123 3124 3125 3127 3128 3130 3132 3133 3134 3135 3136 3137 3139 3139 3141 3142 3142 3144 3146 3146 3147 3148 3149 3149 3148 3149 3152 3153 3153 3153 3154 3153 3153 3153 3153 3153 3153 3153 3152 3154 3154 3153 3153 3153 3152 3149 3146 3146 3142 3138 3142 3142 3142 3145 3143 3141 3142 3142 3142 3142 3140 3140 3140 3140 3139 3139
3089 3092 3093 3095 3097 3099 3100 3103 3105 3107 3109 3110 3113 3115 3116 3117 3118 3118 3118 3117 3116 3118 3120 3121 3121 3122 3125 3127 3128 3129 3130 3132 3133 3134 3136 3137 3138 3140 3140 3142 3143 3143 3144 3146 3147 3146 3146 3149 3150 3150 3151 3151 3151 3151 3151 3151 3151 3151 3151 3151 3150 3152 3153 3151 3151 3151 3149 3146 3144 3143 3137 3131 3136 3138 3138 3141 3139 3138 3139 3139 3138 3138 3137 3137 3137 3136 3136 3135
3086 3088 3090 3092 3094 3095 3098 3100 3102 3105 3106 3108 3111 3113 3114 3115 3115 3116 3116 3115 3111 3112 3116 3117 3117 3118 3121 3123 3123 3125 3126 3127 3129 3131 3133 3134 3136 3137 3138 3140 3140 3140 3142 3144 3145 3143 3143 3146 3147 3148 3149 3149 3149 3148 3149 3150 3149 3149 3148 3148 3149 3150 3150 3150 3150 3149 3146 3143 3141 3143 3137 3126 3129 3134 3134 3136 3135 3134 3136 3135 3134 3136 3135 3134 3133 3132 3132 3131
3082 3084 3086 3088 3090 3092 3095 3097 3100 3103 3104 3106 3108 3109 3111 3112 3114 3114 3115 3113 3107 3105 3110 3112 3113 3113 3115 3117 3118 3122 3123 3121 3124 3128 3129 3131 3134 3134 3135 3136 3136 3138 3140 3143 3142 3139 3139 3142 3144 3146 3146 3146 3146 3145 3146 3148 3148 3146 3145 3146 3148 3147 3148 3148 3148 3147 3145 3142 3139 3141 3139 3127 3122 3128 3131 3131 3131 3131 3133 3132 3131 3132 3131 3130 3129 3129 3128 3128
3077 3080 3082 3084 3086 3088 3091 3094 3098 3100 3101 3104 3105 3107 3109 3110 3112 3112 3114 3114 3103 3098 3104 3107 3107 3108 3109 3112 3115 3119 3118 3114 3119 3124 3125 3128 3130 3131 3131 3132 3133 3135 3138 3140 3138 3134 3134 3139 3142 3143 3143 3143 3141 3141 3144 3147 3146 3143 3142 3145 3146 3145 3146 3146 3146 3146 3143 3141 3137 3136 3139 3130 3117 3119 3125 3127 3127 3127 3128 3129 3129 3128 3128 3126 3126 3126 3126 3125
3073 3075 3078 3080 3081 3083 3087 3091 3095 3097 3098 3101 3102 3104 3106 3107 3110 3111 3114 3114 3100 3092 3097 3100 3101 3103 3105 3108 3111 3114 3112 3110 3116 3119 3121 3124 3125 3127 3128 3128 3131 3133 3136 3137 3133 3131 3133 3136 3138 3139 3140 3139 3138 3140 3143 3144 3143 3141 3141 3143 3143 3144 3144 3143 3144 3143 3142 3140 3132 3129 3136 3132 3115 3111 3120 3123 3121 3123 3125 3126 3126 3125 3124 3124 3123 3123 3123 3123
3069 3071 3073 3076 3077 3079 3082 3085 3089 3092 3094 3096 3098 3100 3102 3105 3108 3109 3114 3110 3095 3089 3092 3094 3097 3098 3100 3104 3106 3108 3108 3108 3112 3115 3118 3121 3121 3123 3124 3126 3130 3131 3133 3133 3130 3130 3131 3132 3135 3136 3136 3135 3137 3139 3140 3141 3141 3139 3140 3140 3140 3142 3141 3142 3142 3140 3143 3137 3125 3124 3131 3130 3113 3104 3115 3120 3116 3118 3121 3123 3124 3122 3121 3121 3120 3121 3120 3120
3065 3068 3070 3072 3073 3074 3076 3080 3083 3087 3089 3091 3093 3096 3099 3101 3104 3108 3110 3101 3089 3087 3088 3090 3094 3095 3096 3099 3101 3103 3104 3105 3108 3112 3115 3117 3118 3120 3122 3124 3127 3127 3128 3128 3127 3127 3128 3129 3131 3131 3131 3133 3135 3136 3136 3138 3138 3137 3138 3138 3139 3140 3139 3141 3139 3138 3142 3131 3119 3121 3126 3127 3116 3102 3108 3116 3113 3115 3117 3119 3121 3119 3118 3118 3118 3118 3118 3118
3062 3064 3066 3068 3069 3070 3071 3075 3080 3082 3083 3084 3087 3090 3093 3095 3098 3102 3099 3092 3087 3084 3083 3086 3089 3090 3091 3094 3096 3099 3101 3102 3105 3108 3110 3112 3114 3116 3117 3119 3122 3124 3125 3124 3122 3123 3123 3125 3126 3126 3128 3129 3131 3132 3133 3135 3135 3135 3136 3136 3138 3138 3137 3138 3136 3137 3139 3126 3116 3119 3121 3123 3114 3100 3104 3111 3110 3112 3113 3114 3117 3116 3115 3116 3116 3116 3115 3114
3058 3060 3062 3064 3065 3066 3068 3071 3076 3077 3076 3077 3079 3080 3083 3087 3090 3089 3087 3088 3086 3079 3078 3083 3083 3084 3087 3090 3093 3096 3098 3099 3101 3104 3106 3109 3110 3110 3112 3113 3115 3119 3119 3117 3117 3118 3119 3119 3121 3122 3123 3125 3127 3129 3130 3131 3132 3133 3134 3135 3137 3138 3138 3136 3134 3134 3132 3122 3117 3118 3119 3116 3103 3096 3102 3106 3106 3109 3109 3110 3111 3112 3113 3114 3113 3112 3111 3111
3053 3055 3057 3060 3061 3063 3065 3068 3072 3072 3071 3073 3074 3073 3077 3079 3077 3076 3077 3081 3079 3074 3075 3078 3078 3082 3086 3087 3090 3092 3095 3097 3098 3100 3102 3104 3106 3107 3108 3109 3111 3113 3112 3112 3114 3116 3116 3115 3116 3117 3117 3119 3121 3123 3124 3125 3127 3129 3129 3131 3133 3136 3138 3134 3132 3131 3125 3119 3116 3117 3118 3108 3095 3094 3099 3100 3104 3106 3106 3108 3109 3109 3112 3111 3110 3109 3108 3108
3049 3051 3053 3055 3057 3060 3062 3063 3067 3069 3068 3069 3070 3069 3072 3072 3068 3068 3070 3071 3072 3072 3073 3073 3075 3080 3082 3084 3086 3089 3092 3093 3095 3097 3098 3100 3101 3101 3103 3104 3106 3108 3109 3111 3111 3112 3112 3109 3109 3111 3112 3114 3115 3117 3120 3122 3125 3125 3126 3128 3128 3128 3129 3127 3126 3124 3119 3116 3116 3116 3113 3100 3091 3093 3095 3096 3101 3103 3103 3106 3106 3106 3108 3108 3107 3107 3106 3106
3044 3046 3049 3051 3053 3056 3058 3059 3063 3065 3064 3064 3063 3064 3065 3064 3062 3062 3063 3064 3068 3070 3070 3071 3075 3078 3079 3081 3083 3085 3088 3089 3091 3093 3094 3095 3095 3095 3096 3098 3100 3103 3105 3107 3106 3107 3107 3103 3104 3107 3109 3110 3112 3114 3117 3119 3122 3123 3123 3125 3122 3119 3122 3123 3122 3119 3118 3118 3113 3109 3102 3092 3089 3090 3091 3095 3097 3098 3101 3102 3102 3103 3104 3105 3105 3104 3103 3102
3040 3042 3044 3046 3048 3052 3054 3056 3059 3060 3060 3059 3056 3055 3055 3056 3056 3057 3059 3061 3064 3067 3068 3070 3073 3074 3075 3077 3079 3081 3084 3085 3087 3089 3089 3090 3090 3091 3092 3093 3095 3096 3098 3100 3100 3101 3102 3100 3101 3104 3105 3107 3109 3111 3113 3115 3116 3117 3117 3115 3114 3116 3120 3122 3121 3117 3119 3118 3107 3099 3093 3088 3088 3085 3085 3092 3093 3094 3097 3097 3098 3100 3100 3101 3101 3101 3100 3099
3035 3037 3039 3041 3044 3047 3050 3053 3055 3055 3056 3054 3049 3047 3049 3051 3053 3057 3059 3060 3062 3064 3066 3067 3068 3070 3071 3073 3074 3077 3080 3082 3083 3084 3085 3086 3085 3085 3086 3087 3090 3091 3092 3095 3096 3097 3099 3098 3098 3100 3102 3104 3106 3107 3108 3110 3111 3111 3110 3110 3113 3117 3119 3120 3120 3118 3120 3118 3103 3093 3089 3086 3086 3081 3080 3087 3089 3090 3094 3094 3096 3097 3097 3098 3097 3098 3098 3097
3030 3032 3033 3036 3040 3043 3046 3049 3050 3051 3052 3049 3044 3044 3046 3046 3050 3055 3056 3057 3059 3063 3064 3063 3064 3066 3067 3069 3071 3073 3076 3078 3079 3080 3081 3082 3079 3078 3080 3082 3084 3087 3089 3093 3094 3094 3096 3096 3096 3098 3099 3100 3102 3104 3104 3105 3106 3105 3106 3109 3112 3113 3113 3114 3116 3114 3114 3114 3102 3091 3087 3082 3080 3077 3078 3083 3085 3086 3089 3090 3092 3093 3094 3095 3095 3095 3095 3094
3025 3026 3027 3031 3036 3039 3041 3044 3047 3047 3045 3041 3039 3040 3040 3041 3045 3051 3053 3055 3057 3060 3060 3060 3061 3063 3064 3065 3067 3070 3072 3073 3074 3075 3076 3077 3075 3073 3076 3079 3081 3084 3086 3089 3090 3091 3094 3094 3093 3093 3094 3097 3098 3098 3098 3097 3100 3102 3105 3107 3107 3108 3107 3107 3108 3106 3106 3107 3101 3094 3087 3076 3071 3073 3076 3078 3080 3082 3085 3086 3088 3090 3091 3093 3093 3092 3092 3092
3021 3021 3021 3026 3032 3035 3037 3041 3042 3041 3038 3036 3036 3036 3037 3039 3041 3045 3050 3052 3053 3054 3056 3057 3059 3059 3059 3061 3063 3065 3068 3068 3069 3071 3071 3072 3071 3069 3072 3075 3078 3081 3084 3086 3087 3089 3091 3090 3089 3089 3091 3093 3092 3091 3091 3091 3095 3098 3099 3101 3101 3102 3103 3103 3103 3102 3101 3103 3103 3100 3089 3069 3065 3072 3073 3074 3077 3078 3082 3084 3085 3087 3089 3090 3090 3090 3089 3089
3017 3016 3016 3021 3027 3030 3033 3034 3034 3034 3032 3031 3032 3032 3034 3036 3036 3039 3045 3048 3048 3049 3051 3053 3054 3055 3055 3057 3058 3060 3063 3064 3065 3067 3067 3068 3067 3066 3067 3071 3074 3078 3080 3082 3083 3084 3085 3085 3085 3086 3085 3085 3084 3086 3088 3089 3091 3092 3092 3093 3092 3094 3096 3098 3099 3098 3099 3101 3100 3101 3090 3065 3060 3070 3069 3071 3076 3075 3078 3081 3082 3084 3086 3087 3088 3087 3087 3086
3011 3011 3013 3017 3021 3025 3027 3027 3027 3029 3028 3026 3028 3029 3029 3030 3032 3035 3040 3043 3044 3045 3047 3048 3049 3051 3052 3052 3054 3057 3059 3060 3061 3063 3063 3063 3063 3063 3065 3068 3072 3074 3076 3077 3078 3080 3080 3080 3081 3080 3079 3079 3081 3084 3086 3087 3089 3089 3088 3087 3087 3088 3088 3090 3093 3093 3097 3098 3094 3098 3090 3062 3056 3068 3067 3067 3073 3073 3075 3077 3078 3081 3083 3084 3085 3084 3084 3083
3005 3006 3010 3014 3017 3020 3022 3021 3022 3024 3022 3023 3025 3026 3025 3026 3029 3032 3034 3037 3039 3041 3042 3043 3044 3047 3048 3049 3051 3053 3055 3056 3057 3058 3059 3059 3059 3061 3064 3066 3068 3070 3072 3073 3074 3077 3077 3077 3078 3077 3077 3078 3079 3082 3083 3083 3084 3082 3080 3081 3082 3084 3084 3087 3090 3090 3091 3092 3089 3096 3089 3060 3053 3065 3066 3066 3069 3070 3072 3074 3075 3078 3079 3081 3082 3081 3081 3080
3000 3002 3004 3008 3013 3015 3014 3013 3015 3016 3017 3019 3021 3020 3022 3023 3024 3026 3029 3031 3034 3036 3038 3038 3040 3042 3044 3047 3048 3049 3052 3053 3053 3054 3055 3055 3055 3058 3061 3063 3063 3065 3067 3068 3070 3072 3072 3072 3074 3076 3077 3077 3076 3077 3075 3074 3075 3074 3074 3077 3079 3081 3084 3086 3087 3087 3087 3084 3082 3088 3079 3056 3053 3063 3063 3064 3066 3066 3069 3070 3071 3074 3075 3077 3078 3078 3078 3078
2996 2997 2998 3003 3008 3009 3006 3008 3011 3011 3013 3015 3015 3016 3019 3018 3017 3020 3024 3026 3029 3032 3034 3034 3036 3039 3040 3042 3044 3045 3047 3049 3050 3050 3051 3051 3052 3053 3057 3059 3059 3060 3063 3065 3067 3068 3066 3065 3067 3069 3070 3070 3067 3064 3062 3063 3067 3069 3070 3073 3074 3077 3080 3081 3082 3085 3082 3076 3075 3078 3067 3051 3054 3061 3060 3061 3063 3062 3065 3068 3069 3070 3071 3073 3075 3074 3074 3075
2991 2991 2993 2997 3001 3002 3002 3005 3008 3007 3009 3011 3010 3011 3013 3013 3013 3016 3019 3021 3024 3027 3030 3030 3032 3034 3035 3037 3039 3040 3041 3044 3046 3047 3047 3047 3048 3049 3051 3054 3055 3057 3059 3061 3063 3063 3061 3059 3060 3060 3060 3060 3057 3055 3057 3059 3063 3065 3065 3067 3070 3073 3075 3077 3079 3077 3072 3070 3069 3067 3059 3051 3052 3057 3058 3059 3060 3060 3062 3064 3066 3067 3068 3069 3070 3070 3070 3071
2986 2986 2988 2992 2995 2996 2997 3000 3002 3002 3004 3006 3005 3005 3007 3008 3010 3012 3013 3015 3019 3022 3024 3025 3027 3029 3029 3032 3034 3035 3036 3038 3040 3041 3042 3043 3044 3045 3047 3048 3051 3054 3056 3057 3057 3057 3055 3053 3054 3055 3054 3054 3054 3054 3056 3057 3058 3060 3061 3063 3065 3067 3069 3072 3071 3066 3065 3067 3061 3053 3055 3052 3047 3050 3056 3057 3057 3058 3059 3060 3062 3063 3064 3065 3065 3066 3066 3067
2981 2981 2984 2988 2990 2990 2991 2994 2997 2998 3000 3001 3000 3001 3003 3004 3006 3007 3008 3011 3014 3017 3018 3019 3020 3022 3024 3027 3029 3029 3031 3033 3033 3035 3036 3037 3039 3040 3041 3043 3046 3049 3051 3051 3051 3052 3049 3048 3050 3051 3051 3051 3051 3052 3053 3053 3053 3054 3055 3057 3060 3062 3063 3063 3060 3058 3058 3058 3050 3046 3052 3051 3043 3044 3051 3053 3053 3056 3057 3058 3058 3058 3060 3061 3061 3061 3061 3062
2976 2977 2980 2983 2984 2985 2987 2990 2993 2994 2994 2996 2996 2996 2998 2999 3000 3002 3004 3007 3007 3009 3012 3012 3013 3016 3019 3022 3024 3024 3025 3027 3027 3028 3031 3032 3033 3034 3036 3037 3039 3042 3044 3044 3045 3046 3044 3043 3045 3046 3045 3046 3047 3047 3048 3048 3047 3047 3048 3051 3054 3055 3056 3054 3051 3049 3050 3050 3048 3047 3048 3046 3039 3039 3044 3047 3049 3052 3054 3053 3053 3053 3056 3057 3057 3056 3056 3057
2972 2972 2975 2978 2978 2980 2982 2984 2987 2988 2989 2990 2990 2990 2993 2995 2995 2998 3000 3001 3000 3002 3005 3006 3008 3012 3015 3017 3019 3017 3019 3022 3022 3023 3026 3027 3027 3028 3029 3030 3032 3035 3037 3038 3039 3040 3039 3038 3040 3042 3040 3040 3040 3040 3041 3041 3042 3042 3043 3046 3049 3049 3046 3043 3041 3042 3046 3046 3045 3045 3045 3038 3030 3033 3039 3042 3043 3046 3047 3047 3047 3049 3051 3052 3052 3052 3052 3052
2967 2969 2971 2973 2974 2975 2977 2979 2982 2983 2983 2984 2984 2986 2989 2990 2992 2995 2994 2994 2996 2998 3000 3002 3006 3009 3011 3011 3012 3011 3014 3017 3016 3018 3022 3023 3023 3024 3024 3025 3028 3030 3031 3032 3033 3033 3033 3033 3035 3037 3035 3033 3033 3034 3034 3036 3038 3038 3038 3039 3039 3035 3032 3031 3034 3038 3040 3039 3039 3042 3039 3027 3021 3028 3036 3036 3037 3040 3041 3042 3044 3045 3046 3047 3047 3046 3047 3047
2963 2965 2967 2969 2969 2970 2972 2974 2977 2977 2976 2979 2981 2982 2984 2986 2989 2991 2990 2989 2992 2994 2997 2999 3002 3004 3004 3003 3004 3007 3010 3012 3013 3015 3018 3018 3019 3020 3020 3021 3024 3025 3025 3027 3028 3027 3029 3029 3031 3032 3030 3027 3027 3028 3030 3034 3034 3030 3027 3026 3023 3022 3024 3028 3031 3031 3031 3032 3034 3034 3028 3020 3021 3028 3030 3029 3032 3034 3035 3039 3041 3041 3042 3042 3041 3041 3041 3042